TimeMDT,TemperatureF,Dew PointF,Humidity,Sea Level PressureIn,VisibilityMPH,Wind Direction,Wind SpeedMPH,Gust SpeedMPH,PrecipitationIn,Events,Conditions,WindDirDegrees,DateUTC
12:58 AM,65.5,15.4,14,29.70,10.0,SSE,8.1,-,N/A,,Clear,160,2013-05-22 06:58:00
1:58 AM,63.7,14.0,15,29.69,10.0,SSE,6.9,-,N/A,,Clear,150,2013-05-22 07:58:00
2:58 AM,62.2,14.2,15,29.70,10.0,SSE,8.1,-,N/A,,Clear,150,2013-05-22 08:58:00
3:58 AM,62.4,14.4,15,29.70,10.0,SSE,10.4,-,N/A,,Clear,160,2013-05-22 09:58:00
4:58 AM,64.8,13.1,13,29.70,10.0,SE,9.2,-,N/A,,Clear,140,2013-05-22 10:58:00
5:58 AM,63.3,13.6,14,29.71,10.0,SSE,10.4,-,N/A,,Clear,150,2013-05-22 11:58:00
6:58 AM,63.0,14.9,15,29.74,10.0,SSE,6.9,-,N/A,,Clear,150,2013-05-22 12:58:00
7:58 AM,70.7,14.0,11,29.74,10.0,South,9.2,-,N/A,,Clear,180,2013-05-22 13:58:00
8:58 AM,76.1,13.6,9,29.75,10.0,South,11.5,-,N/A,,Clear,180,2013-05-22 14:58:00
9:58 AM,79.3,13.5,8,29.75,10.0,SSW,10.4,-,N/A,,Clear,200,2013-05-22 15:58:00
10:58 AM,83.3,13.6,7,29.74,10.0,SW,8.1,-,N/A,,Clear,230,2013-05-22 16:58:00
11:58 AM,86.9,12.7,6,29.73,10.0,WSW,10.4,19.6,N/A,,Clear,240,2013-05-22 17:58:00
12:04 PM,87.8,14.0,6,29.93,10.0,West,16.1,23.0,N/A,,Clear,260,2013-05-22 18:04:00
12:58 PM,89.2,10.2,5,29.70,10.0,Variable,5.8,26.5,N/A,,Clear,0,2013-05-22 18:58:00
1:15 PM,89.6,10.4,5,29.90,10.0,West,13.8,18.4,N/A,,Partly Cloudy,260,2013-05-22 19:15:00
1:58 PM,90.0,10.9,5,29.67,10.0,SSW,9.2,23.0,N/A,,Partly Cloudy,200,2013-05-22 19:58:00
2:58 PM,92.5,12.6,5,29.65,10.0,WSW,15.0,19.6,N/A,,Clear,250,2013-05-22 20:58:00
3:58 PM,92.3,12.6,5,29.62,10.0,SSW,11.5,20.7,N/A,,Clear,210,2013-05-22 21:58:00
4:00 PM,93.2,12.2,5,29.83,10.0,WSW,12.7,20.7,N/A,,Clear,250,2013-05-22 22:00:00
4:21 PM,93.2,12.2,5,29.81,10.0,South,17.3,26.5,N/A,,Clear,190,2013-05-22 22:21:00
4:58 PM,92.3,12.4,5,29.60,10.0,SW,20.7,26.5,N/A,,Clear,220,2013-05-22 22:58:00
5:58 PM,92.5,12.7,5,29.60,10.0,SSW,17.3,20.7,N/A,,Clear,210,2013-05-22 23:58:00
6:58 PM,90.1,10.9,5,29.59,10.0,South,18.4,24.2,N/A,,Clear,190,2013-05-23 00:58:00
7:58 PM,86.4,12.4,6,29.61,10.0,South,12.7,-,N/A,,Clear,190,2013-05-23 01:58:00
8:58 PM,80.1,11.1,7,29.63,10.0,South,10.4,-,N/A,,Clear,180,2013-05-23 02:58:00
9:58 PM,75.7,10.8,8,29.65,10.0,SSE,8.1,-,N/A,,Clear,150,2013-05-23 03:58:00
10:58 PM,74.7,12.6,9,29.65,10.0,SE,11.5,-,N/A,,Clear,140,2013-05-23 04:58:00
11:58 PM,70.2,11.5,10,29.66,10.0,SE,8.1,-,N/A,,Clear,140,2013-05-23 05:58:00